Vorticity
nan nan nan nan nan nan nan nan nan nan nan nan nan nan nan nan nan nan nan nan nan nan nan nan nan nan nan nan nan nan nan nan nan nan nan nan nan nan nan nan nan nan nan
nan 7 8 8 8 9 11 17 14 7 7 7 5 8 7 6 9 8 8 12 9 11 15 11 6 6 7 6 6 8 6 4 4 5 5 5 5 5 5 5 5 6 nan
nan 8 9 8 7 6 8 17 12 10 9 9 7 8 9 6 10 9 7 9 10 10 13 13 6 7 7 7 6 5 4 3 5 5 5 5 6 6 6 5 5 6 nan
nan 10 9 7 8 9 11 11 14 10 8 9 8 8 9 8 10 9 7 6 7 10 14 15 11 7 7 8 7 4 4 3 5 6 6 6 6 6 6 5 5 5 nan
nan 10 9 6 9 10 10 7 15 17 9 7 10 8 8 11 7 8 8 7 7 7 11 16 14 10 9 9 8 6 5 6 6 6 5 5 6 6 6 6 6 6 nan
nan 10 9 7 10 10 7 7 11 15 16 11 8 7 8 10 9 10 8 7 7 7 10 12 10 12 14 10 10 9 6 6 5 5 5 6 5 6 6 6 6 6 nan
nan 10 9 8 8 8 7 8 10 19 17 12 7 6 9 12 7 8 8 8 9 7 8 10 9 10 15 14 10 10 9 6 5 6 6 6 5 5 6 7 6 5 nan
nan 9 7 8 8 8 8 9 9 16 15 12 11 12 6 7 12 9 7 9 8 7 10 13 10 8 8 10 15 13 9 8 7 7 6 5 5 7 7 6 6 7 nan
nan 8 9 9 9 9 8 8 6 9 15 12 12 6 10 12 11 8 11 8 7 6 8 12 11 8 8 8 10 13 12 12 9 6 6 6 6 7 7 7 6 6 nan
nan 7 8 8 9 9 8 8 9 6 9 8 14 14 3 8 8 6 10 13 9 7 6 7 12 11 8 8 9 9 12 14 11 7 6 6 7 8 8 6 6 6 nan
nan 9 8 8 9 9 7 7 8 10 9 7 9 14 10 5 6 10 9 5 11 11 9 8 8 10 9 7 8 11 11 9 11 9 6 7 7 7 6 6 7 6 nan
nan 8 8 9 9 7 7 9 9 8 9 10 6 7 16 13 7 6 11 11 7 9 9 8 9 9 8 9 11 12 9 9 11 11 10 7 8 7 7 7 6 7 nan
nan 6 8 9 7 7 8 9 9 10 9 10 7 8 9 12 14 11 8 11 6 5 12 12 9 8 8 9 13 13 11 11 11 12 12 9 8 8 8 8 7 7 nan
nan 7 8 7 7 7 9 10 10 9 9 9 9 9 9 7 15 15 8 8 7 6 9 12 13 9 9 10 13 10 11 13 11 13 13 14 11 9 10 9 9 8 nan
nan 7 8 9 8 8 8 10 10 8 9 8 10 9 10 12 8 13 16 8 8 11 6 5 12 13 9 10 12 9 11 14 10 11 10 12 13 11 10 10 9 10 nan
nan 9 8 8 9 8 9 10 9 8 9 10 9 9 9 5 7 17 15 10 8 8 8 8 10 14 12 10 14 9 10 13 11 9 9 9 10 12 11 10 9 9 nan
nan 8 8 8 9 9 9 10 8 9 8 7 8 8 9 10 9 5 18 16 8 7 5 7 10 12 15 8 10 11 9 9 14 14 9 7 7 9 11 11 11 11 nan
nan 9 9 9 9 8 9 9 8 9 9 8 8 9 8 9 8 11 6 17 17 5 7 9 6 9 15 13 10 9 7 10 13 16 11 10 9 8 8 8 9 9 nan
nan 9 9 9 9 8 9 9 9 8 10 9 9 9 9 10 9 10 7 11 15 15 6 6 8 7 12 12 7 12 11 9 10 18 16 11 9 8 8 8 8 8 nan
nan 10 10 9 9 9 10 11 10 9 9 9 8 8 10 8 4 5 11 5 16 20 12 3 7 10 8 11 11 8 4 9 8 10 15 14 13 12 9 8 9 8 nan
nan 10 9 9 10 11 7 5 7 10 10 10 9 9 9 7 9 4 3 2 2 12 15 9 6 7 11 13 11 8 10 8 8 8 8 9 11 10 12 12 11 13 nan
nan 10 9 9 10 9 2 3 7 13 11 10 10 10 10 11 11 12 7 6 5 0 9 13 10 8 7 9 11 9 8 7 9 13 11 7 10 8 11 15 15 12 nan
nan 11 9 10 10 7 6 9 10 12 11 10 9 9 11 11 10 13 14 18 18 12 5 7 10 12 10 11 8 9 8 8 7 14 14 9 11 10 10 15 16 11 nan
nan 11 10 10 10 7 7 9 13 13 12 11 11 10 9 8 9 4 10 15 17 16 12 12 8 13 10 11 10 10 6 2 8 15 12 11 10 14 11 16 16 12 nan
nan 11 10 10 8 6 8 9 15 16 12 13 12 11 6 8 6 5 10 11 8 9 9 15 22 13 16 13 4 6 12 5 6 12 8 9 10 11 11 11 16 17 nan
nan nan nan nan nan nan nan nan nan nan nan nan nan nan nan nan nan nan nan nan nan nan nan nan nan nan nan nan nan nan nan nan nan nan nan nan nan nan nan nan nan nan nan
CAPE
0 5 3 5 10 10 25 264 172 70 42 15 0 0 0 0 0 0 0 20 198 687 395 666 222 18 12 24 78 70 74 90 57 25 21 10 0 0 0 2 10 7 5
0 2 3 4 5 8 8 18 123 65 23 8 0 0 0 0 0 0 0 11 111 384 733 643 390 106 9 25 98 73 56 64 29 19 17 10 0 0 0 1 8 6 4
0 0 1 3 8 10 6 2 102 155 102 29 0 0 0 0 0 0 0 2 18 18 302 679 619 366 16 22 111 76 34 39 36 29 25 6 0 0 0 2 4 10 12
0 0 0 3 7 8 8 6 43 237 51 12 0 0 0 0 0 0 0 0 0 2 8 428 325 349 155 199 139 121 50 57 75 44 6 1 0 0 0 3 4 8 6
0 0 0 2 1 8 7 9 13 133 56 1 0 0 0 0 0 0 0 0 1 3 4 63 81 79 39 135 273 101 82 70 88 30 6 0 0 0 1 8 7 7 8
0 0 0 0 3 9 9 5 8 7 65 96 57 0 0 0 0 0 0 0 0 13 26 33 24 25 13 144 336 280 153 101 46 33 5 2 3 2 6 10 7 13 5
0 0 0 1 4 5 8 10 5 3 131 146 1 6 0 0 3 0 0 0 1 18 37 61 35 21 18 46 108 212 339 102 62 35 14 4 4 5 3 6 12 7 6
0 0 0 0 6 5 6 7 9 10 16 0 69 12 14 12 5 0 1 0 0 14 16 62 39 39 27 42 28 52 111 203 97 60 24 10 9 4 12 11 8 6 11
0 0 0 1 5 4 8 11 12 6 11 9 1 21 20 59 23 0 0 5 0 5 2 2 44 33 21 17 6 16 30 64 184 75 25 9 9 6 11 11 10 12 11
0 0 0 1 3 5 8 9 10 15 10 9 3 89 3 1 7 0 0 1 0 0 2 0 0 7 2 5 0 0 0 32 193 113 58 16 12 8 11 13 13 11 11
0 0 0 1 0 5 10 4 9 10 8 12 9 7 26 18 12 1 0 0 0 0 0 0 0 0 0 0 0 0 0 0 216 175 141 60 15 14 17 10 9 11 8
0 0 1 0 1 9 2 6 6 12 10 13 11 9 6 44 3 1 2 0 0 0 0 0 0 0 0 0 0 0 0 0 4 300 178 122 34 23 15 44 14 10 9
0 0 0 0 9 2 3 5 8 10 11 9 12 8 9 4 1 0 1 1 0 0 0 0 0 0 0 0 0 0 0 0 0 86 157 98 104 70 82 59 49 28 19
0 0 0 0 1 7 3 4 6 10 12 8 9 10 12 10 6 0 0 0 0 0 0 0 0 0 0 0 0 0 0 0 0 6 138 114 75 27 49 72 94 98 81
0 0 0 0 0 6 2 1 5 5 11 12 11 12 9 8 7 11 10 0 0 0 0 0 0 0 0 0 0 0 0 0 0 0 26 27 32 28 30 31 45 59 62
0 0 0 0 1 8 2 1 1 2 6 9 12 12 14 12 1 0 24 4 0 0 0 0 0 0 0 0 0 0 0 0 0 0 0 0 0 3 6 4 15 19 27
0 0 3 0 2 7 5 3 5 9 1 8 3 6 5 11 7 12 7 56 9 0 0 0 0 0 0 0 0 0 0 0 0 0 0 0 0 0 0 0 11 19 31
0 0 0 0 4 8 5 12 14 10 2 1 10 5 9 6 8 13 7 7 1 5 1 0 0 0 0 0 0 0 0 0 0 0 0 0 0 0 0 0 0 0 0
0 0 0 0 1 10 14 15 14 10 11 2 1 8 6 6 7 2 8 3 7 15 0 0 0 0 0 0 0 0 0 0 0 0 0 0 0 0 0 0 0 0 0
0 0 0 0 3 8 10 10 17 13 8 5 6 2 9 13 8 8 12 1 1 4 1 0 0 0 0 0 0 0 0 0 0 0 0 0 0 0 0 0 0 0 0
0 0 0 0 0 1 15 12 11 13 13 10 14 8 1 3 16 11 17 8 1 2 19 8 0 0 0 0 0 0 0 0 0 0 0 0 0 0 0 0 0 0 0
0 0 0 0 0 6 17 18 11 9 21 24 16 14 12 5 12 14 13 16 13 3 1 22 0 0 0 0 0 0 0 0 0 0 0 0 0 0 0 0 0 0 0
0 0 0 0 0 0 15 20 13 7 22 30 25 19 26 11 4 13 11 16 24 7 8 1 1 0 0 0 0 0 0 0 0 0 0 0 0 0 0 0 0 0 0
0 0 0 0 0 0 15 17 15 11 20 23 19 21 17 16 3 5 14 15 29 4 1 6 13 1 0 0 0 0 0 0 0 0 0 0 0 0 0 0 0 0 0
0 0 0 0 0 0 9 20 22 21 28 24 23 20 18 16 10 8 6 21 18 7 0 0 1 3 3 0 0 0 0 0 1 0 0 0 0 0 0 0 0 0 0
0 0 0 0 2 1 5 14 21 15 10 10 5 22 24 14 17 22 17 18 17 4 0 0 0 0 0 0 0 0 0 0 0 1 0 0 0 0 0 0 0 0 0